Flag for China Weather past 2 weeks in Nanjing, Jiangsu, China

Now
72 °F

Passing clouds.


Feels Like: 71 °F
Forecast: 64 / 69 °F
Wind: 8 mph from Northeast

Location: Nanjing

Current Time: Sep 18, 2014 at 12:20:13 AM

Latest Report: Sep 17, 2014 at 11:00 PM


Visibility: 6 mi

Pressure: 30.01 "Hg

Humidity: 83%

Dew point: 66 °F

Location of NanjingLocation

Historic Weather in Nanjing — Graph

°F

Nanjing temperature yesterday

Maximum temperature yesterday: 82 °F (at 12:00 PM)
Minimum temperature yesterday: 70 °F (at 12:00 AM)
Average temperature yesterday: 75 °F

Past Weeks' High & Low Weather Summary

 TemperatureHumidityPressure
High88 °F (Sep 7, 1:00 PM)100% (Sep 3, 3:00 AM)30.01 "Hg (Sep 3, 3:00 AM)
Low64 °F (Sep 12, 5:00 PM)51% (Sep 16, 4:00 PM)29.74 "Hg (Sep 3, 2:00 AM)
Average75 °F86%29.84 "Hg
* Reported Sep 2 11:00 PM — Sep 17 11:00 PM, Nanjing, Weather by CustomWeather, © 2014

Note: Actual official high and low records may vary slightly from our data, if they occured in-between our weather recording intervals... More about our weather records

Advertising

Nanjing weather history for previous 24 hours

 ConditionsComfort  
Time TempWeatherWind HumidityBarometerVisibility
11:00 PM
Sep 17
72 °FPassing clouds.8 mph83%30.01 "Hg6 mi
10:00 PM73 °FPassing clouds.10 mph78%30.01 "Hg6 mi
9:00 PM73 °FPassing clouds.8 mph83%29.98 "Hg6 mi
8:00 PM75 °FPassing clouds.10 mph78%29.98 "Hg6 mi
7:00 PM75 °FPassing clouds.10 mph78%29.95 "Hg6 mi
6:00 PM77 °FScattered clouds.10 mph79%29.95 "Hg4 mi
5:00 PM79 °FClear.10 mph74%29.95 "Hg4 mi
4:00 PM81 °FClear.10 mph70%29.95 "Hg5 mi
3:00 PM82 °FClear.13 mph70%29.92 "Hg5 mi
2:00 PM81 °FPartly sunny.13 mph70%29.92 "Hg5 mi
1:00 PM82 °FPartly sunny.10 mph70%29.95 "Hg5 mi
12:00 PM82 °FPartly sunny.10 mph70%29.98 "Hg5 mi
11:00 AM81 °FPartly sunny.10 mph70%29.98 "Hg5 mi
10:00 AM79 °FPassing clouds.10 mph74%30.01 "Hg5 mi
9:00 AM77 °FScattered clouds.10 mph79%30.01 "Hg5 mi
8:00 AM73 °FScattered clouds.8 mph89%29.98 "Hg4 mi
7:00 AM72 °FPartly sunny.3 mph88%29.98 "Hg4 mi
6:00 AM70 °FFog.3 mph94%29.95 "Hg3 mi
5:00 AM70 °FFog.8 mph94%29.92 "Hg3 mi
4:00 AM70 °FFog.6 mph94%29.92 "Hg3 mi
3:00 AM70 °FFog.3 mph94%29.92 "Hg2 mi
2:00 AM70 °FFog.6 mph94%29.95 "Hg3 mi
1:00 AM70 °FClear.6 mph94%29.95 "Hg4 mi
12:00 AM70 °FClear.6 mph94%29.95 "Hg6 mi
Weather by CustomWeather, © 2014

See weather overviewHow to use our weather pages